Worthington, MN

6:15 PM CST on December 15, 2019 (GMT -0600)
Worthington Municipal

Weather History for KOTG - October, 2019

Change the Weather History Date:

Thursday, October 24, 2019

  Actual Average Record
Temperature  
Mean Temperature 35 °F -  
Max Temperature 45 °F 52 °F 80 °F (1989)
Min Temperature 26 °F 34 °F 18 °F (1972)
Degree Days  
Heating Degree Days 30    
Moisture  
Dew Point 27 °F    
Average Humidity 74    
Maximum Humidity 96    
Minimum Humidity 49    
Precipitation  
Precipitation 0.00 in - - ()
Sea Level Pressure  
Sea Level Pressure 30.38 in    
Wind  
Wind Speed 8 mph (WNW)    
Max Wind Speed 14 mph    
Max Gust Speed 17 mph    
Visibility 10 miles    
Events      
Averages and records for this station are not official NWS values.
T = Trace of Precipitation, MM = Missing Value Source: NWS Daily Summary

Daily Weather History Graph

Daily Weather History Graph

Search for Another Location

Airport or City:

Astronomy

Oct. 24, 2019 Rise Set
Actual Time 7:47 AM CDT 6:24 PM CDT
Civil Twilight 7:18 AM CDT 6:54 PM CDT
Nautical Twilight 6:44 AM CDT 7:27 PM CDT
Astronomical Twilight 6:11 AM CDT 8:00 PM CDT
Moon 3:07 AM CDT (10/24) 5:02 PM CDT (10/24)
Length of Visible Light 11h 35m
Length of Day
10h 37m
Waning Crescent, 16% of the Moon is Illuminated
Oct 24
Waning Crescent
Oct 27
New
Nov 4
First Quarter
Nov 12
Full
Nov 19
Last Quarter

Hourly Weather History & Observations

Time (CDT) Temp. Windchill Dew Point Humidity Pressure Visibility Wind Dir Wind Speed Gust Speed Precip Events Conditions
12:56 AM 33.1 °F 26.1 °F 30.0 °F 89% 30.28 in 10.0 mi NW 8.1 mph - N/A   Mostly Cloudy
1:03 AM 33.8 °F 26.4 °F 30.2 °F 87% 30.22 in 10.0 mi NW 9.2 mph - N/A   Scattered Clouds
1:56 AM 28.9 °F 22.8 °F 27.0 °F 92% 30.31 in 10.0 mi WNW 5.8 mph - N/A   Clear
2:56 AM 30.0 °F 22.4 °F 28.0 °F 92% 30.34 in 10.0 mi West 8.1 mph - N/A   Mostly Cloudy
3:56 AM 30.0 °F 22.4 °F 28.0 °F 92% 30.35 in 10.0 mi West 8.1 mph - N/A   Partly Cloudy
4:56 AM 28.0 °F 18.6 °F 27.0 °F 96% 30.35 in 10.0 mi NW 10.4 mph - N/A   Clear
5:56 AM 28.0 °F 18.6 °F 25.0 °F 88% 30.36 in 10.0 mi NW 10.4 mph - N/A   Clear
6:56 AM 28.0 °F 20.8 °F 24.1 °F 85% 30.40 in 10.0 mi WSW 6.9 mph - N/A   Clear
7:56 AM 26.1 °F 18.4 °F 24.1 °F 92% 30.37 in 10.0 mi NW 6.9 mph - N/A   Clear
8:56 AM 32.0 °F 25.6 °F 27.0 °F 82% 30.39 in 10.0 mi West 6.9 mph - N/A   Clear
9:56 AM 35.1 °F 27.9 °F 26.1 °F 70% 30.41 in 10.0 mi West 9.2 mph - N/A   Clear
10:56 AM 37.0 °F 28.5 °F 28.0 °F 70% 30.43 in 10.0 mi West 13.8 mph - N/A   Clear
11:45 AM 37.4 °F 29.8 °F 28.4 °F 70% 30.38 in 10.0 mi NW 11.5 mph - N/A   Mostly Cloudy
11:56 AM 37.0 °F 31.0 °F 28.0 °F 70% 30.43 in 10.0 mi WNW 8.1 mph - N/A   Mostly Cloudy
12:05 PM 37.4 °F 31.4 °F 28.4 °F 70% 30.38 in 10.0 mi WNW 8.1 mph - N/A   Scattered Clouds
12:17 PM 39.2 °F 31.6 °F 28.4 °F 65% 30.37 in 10.0 mi WNW 12.7 mph - N/A   Mostly Cloudy
12:56 PM 39.9 °F 33.9 °F 26.1 °F 58% 30.43 in 10.0 mi NNW 9.2 mph - N/A   Scattered Clouds
1:56 PM 42.1 °F 35.7 °F 27.0 °F 55% 30.40 in 10.0 mi NW 11.5 mph 17.3 mph N/A   Partly Cloudy
2:56 PM 43.0 °F 37.7 °F 26.1 °F 51% 30.39 in 10.0 mi NNW 9.2 mph - N/A   Partly Cloudy
3:56 PM 43.0 °F 38.8 °F 26.1 °F 51% 30.39 in 10.0 mi NW 6.9 mph - N/A   Clear
4:56 PM 44.1 °F 40.1 °F 26.1 °F 49% 30.37 in 10.0 mi WNW 6.9 mph - N/A   Clear
5:56 PM 42.1 °F 38.4 °F 26.1 °F 53% 30.37 in 10.0 mi NNW 5.8 mph - N/A   Clear
6:56 PM 37.9 °F 35.5 °F 25.0 °F 60% 30.40 in 10.0 mi SW 3.5 mph - N/A   Clear
7:56 PM 37.9 °F - 25.0 °F 60% 30.41 in 10.0 mi Calm Calm - N/A   Clear
8:56 PM 33.1 °F 28.7 °F 26.1 °F 75% 30.41 in 10.0 mi SSW 4.6 mph - N/A   Clear
9:56 PM 30.9 °F 26.2 °F 27.0 °F 85% 30.42 in 10.0 mi SW 4.6 mph - N/A   Clear
10:56 PM 30.0 °F 24.1 °F 26.1 °F 85% 30.42 in 10.0 mi SW 5.8 mph - N/A   Clear
11:56 PM 28.9 °F 22.8 °F 25.0 °F 85% 30.40 in 10.0 mi SW 5.8 mph - N/A   Clear